User: anonymous   Login
Location: Unspecified
(0.0000°N, 0.0000°E)
Time: 00:21:10
(UTC+00:00)
Language:

USA 274 - Orbit

View from above orbital plane
View from above orbital plane
View from above satellite
View from above satellite

Ground track
Ground track

The orbit data is extracted from the following two-line orbital elements,

1 42058U 17011A   17086.07193711 0.00000000  00000-0  00000-0 0    03
2 42058  63.4408  86.4517 0123629 179.0279 180.9721 13.40841291    06
Epoch (UTC): 27 March 2017 01:43:35
Eccentricity: 0.0123629
inclination: 63.4408°
perigee height: 1013 km
apogee height: 1198 km
right ascension of ascending node: 86.4517°
argument of perigee: 179.0279°
revolutions per day: 13.40841291
mean anomaly at epoch: 180.9721°
orbit number at epoch: 0

The dashed part of the orbit path shows where the satellite is in the earth's shadow,  

DLR